Regional Weather Roundup
Issued by NWS

Home | Current Version | Previous Version | Graphics & Text | Print | Product List | Glossary Off
Versions: 1 2 3 4 5 6 7 8 9 10 11 12 13 14 15 16 17 18 19 20 21 22 23 24 25 26 27 28 29 30 31 32 33 34 35 36 37 38 39 40 41 42 43 44 45 46 47 48 49 50

000
ASUS43 KMPX 282310
RWRMN
WEATHER ROUNDUP FOR MINNESOTA
NATIONAL WEATHER SERVICE TWIN CITIES/CHANHASSEN MN
600 PM CDT THU MAY 28 2015


NOTE: "FAIR" INDICATES FEW OR NO CLOUDS BELOW 12,000 FEET WITH NO
SIGNIFICANT WEATHER AND/OR OBSTRUCTIONS TO VISIBILITY. N/A MEANS
CURRENT SKY AND/OR WEATHER CONDITIONS ARE NOT AVAILABLE.

MNZ060>063-068>070-290000-
   Twin Cities Metro

CITY           SKY/WX    TMP DP  RH WIND       PRES   REMARKS
TWIN CITIES    PTSUNNY   82  51  34 S13       29.94F
ST PAUL        MOSUNNY   80  53  39 S12G22    29.94F
CRYSTAL        MOSUNNY   83  50  31 S17G29    29.92F
BLAINE         PTSUNNY   82  48  30 S18G28    29.93F
LAKEVILLE      MOSUNNY   81  52  36 S15G22    29.95F
EDEN PRAIRIE   MOSUNNY   80  53  39 S16G23    29.93F
SOUTH ST PAUL  MOSUNNY   81  51  34 S14       29.95F
LAKE ELMO      FAIR      79  55  44 S15G21    29.97F
$$
MNZ001>005-007-008-013>017-022>024-027-028-290000-
   Northwest Minnesota

CITY           SKY/WX    TMP DP  RH WIND       PRES   REMARKS
BEMIDJI        PTSUNNY   77  53  43 S17G24    29.82S
HALLOCK        TSTM      68  64  88 CALM      29.77F
ROSEAU         CLOUDY    72  63  73 E6        29.79F
WARROAD        PTSUNNY   63  57  82 E7        29.82F
THIEF RVR FALL CLOUDY    66  61  82 CALM      29.78R THUNDER
CROOKSTON      CLOUDY    70  64  83 W12       29.78R
FOSSTON        CLOUDY    75  55  50 S15       29.78F
DETROIT LAKES  CLOUDY    75  55  50 S10       29.83S
MOORHEAD       TSTM      64  61  88 W14       29.83R
PARK RAPIDS    MOSUNNY   79  50  36 S16G26    29.83F
MAHNOMEN       MOCLDY    75  58  54 S16       29.78F
$$
MNZ006-009>011-018-025>026-290000-
   North Central Minnesota

CITY           SKY/WX    TMP DP  RH WIND       PRES   REMARKS
BAUDETTE       RAIN      62  60  93 S5        29.83F VSB 1/2
FLAG ISLAND    PTSUNNY   61  55  82 CALM      29.81F FOG
INTL FALLS     CLOUDY    63  56  78 NE5       29.84F
WASKISH        CLOUDY    64  61  88 CALM      29.81F
BIG FORK       MOSUNNY  N/A N/A N/A SW18G24   29.84F
LONGVILLE      MOSUNNY   79  48  34 S13G20    29.85F
GRAND RAPIDS   CLOUDY    79  52  38 S20G29    29.87F
CRANE LAKE     PTSUNNY   75  54  46 S10G16    29.85F
ORR            PTSUNNY   79  50  36 S14G21    29.82F
COOK           MOSUNNY   79  52  38 S9G24     29.86F
WALKER         FAIR      78  49  35 S16G23    29.84R
$$
MNZ012-019>021-037-290000-
   Northeast Minnesota

CITY           SKY/WX    TMP DP  RH WIND       PRES   REMARKS
DULUTH         MOSUNNY   50  44  80 SE13      29.97F
HIBBING        SUNNY     77  52  41 S14G22    29.89F
EVELETH        SUNNY     73  52  46 S15       29.91F
DULUTH HARBOR  CLOUDY    43  41  93 NE14      30.01F FOG
TWO HARBORS    MOSUNNY   55  48  76 E7        29.97F
SILVER BAY     SUNNY     52  46  82 E10       29.98F
GRAND MARAIS     N/A     46  41  82 NE10      30.00F
G MARAIS ARPRT MOSUNNY   59  46  63 SE6       30.01F
$$
MNZ029>031-032-039>041-046>048-054>057-064-290000-
   West Central Minnesota

CITY           SKY/WX    TMP DP  RH WIND       PRES   REMARKS
FERGUS FALLS   MOSUNNY   82  55  39 S22G29    29.79F
WHEATON        MOSUNNY   82  55  39 S23G29    29.80S
MORRIS         MOSUNNY   84  50  30 S26G33    29.80F
ALEXANDRIA     MOSUNNY   81  50  33 S18G25    29.85F
ELBOW LAKE     FAIR      83  54  36 S23G33    29.81F
WADENA         MOSUNNY   81  52  36 S25G35    29.83F
GLENWOOD       MOSUNNY   81  46  30 S21G29    29.86F
APPLETON       MOSUNNY   86  45  23 S14G24    29.81F
BENSON         MOSUNNY   84  43  23 SW21      29.83F
ORTONVILLE     MOSUNNY   82  54  36 S16G23    29.80F
MADISON        MOSUNNY   82  46  28 S20       29.82F
WILLMAR          N/A     84  48  28 S9G17     29.88F
$$
MNZ033>034-036-042>043-049>051-058-059-290000-
   Central Minnesota

CITY           SKY/WX    TMP DP  RH WIND       PRES   REMARKS
ST CLOUD       PTSUNNY   80  51  36 S15G23    29.89F
SAUK CENTRE    FAIR      83  50  31 S24G31    29.86F
PAYNESVILLE    MOSUNNY   79  47  32 SE13G22   29.89F
AITKIN         PTSUNNY   81  54  39 S10G17    29.87F
PINE RIVER     MOSUNNY   81  54  39 S20G26    29.88F
BRAINERD       MOSUNNY   80  52  37 S21G29    29.87F
STAPLES        MOSUNNY   81  46  30 S24G32    29.84F
LONG PRAIRIE   FAIR      81  46  30 SE21G30   29.87F
LITTLE FALLS   PTSUNNY   81  46  30 S16G23    29.87F
LITCHFIELD     MOSUNNY   82  50  32 S10G20    29.90F
BUFFALO        MOSUNNY   82  48  30 SE13G24   29.93F
MAPLE LAKE     MOSUNNY   83  53  35 S8G20     29.92F
$$
MNZ037-044-045-052-053-290000-
   East Central Minnesota

CITY           SKY/WX    TMP DP  RH WIND       PRES   REMARKS
PRINCETON      PTSUNNY   82  54  36 S18       29.91F
MORA           PTSUNNY   79  52  38 S12G20    29.92F
CAMBRIDGE      PTSUNNY   84  61  45 S20       29.90F
RUSH CITY      PTSUNNY   80  53  39 S15       29.92F
MOOSE LAKE     MOSUNNY   79  48  34 S14G20    29.89F
HINCKLEY       FAIR      81  55  41 S13       29.91F
CLOQUET        MOSUNNY   54  45  71 E10       29.96F
MCGREGOR       PTSUNNY   77  52  41 S15G23    29.90F
$$
MNZ071>073-080-081-089-090-097-098-290000-
   Southwest Minnesota

CITY           SKY/WX    TMP DP  RH WIND       PRES   REMARKS
MONTEVIDEO     MOSUNNY   84  46  26 SW15G26   29.84F
GRANITE FALLS  SUNNY     85  47  26 SE23G31   29.87F
CANBY          MOSUNNY   81  51  34 S14G23    29.84F
MARSHALL       SUNNY     82  52  34 S22G31    29.86F
REDWOOD FALLS  MOSUNNY   83  49  30 S21G33    29.88F
OLIVIA         SUNNY     81  46  30 S20G28    29.88F
PIPESTONE      MOSUNNY   79  54  41 S23G29    29.90S
WINDOM         CLOUDY    79  55  44 S18G30    29.92F
WORTHINGTON    CLOUDY    79  54  41 S17G29    29.92F
JACKSON        CLOUDY    79  55  44 S22G30    29.95F
TRACY          MOSUNNY   82  55  39 S20G29    29.89F
SLAYTON        PTSUNNY   78  54  43 S20G28    29.91F
$$
MNZ065>067-074>077-082>085-091>093-290000-
   South Central Minnesota

CITY           SKY/WX    TMP DP  RH WIND       PRES   REMARKS
MANKATO        PTSUNNY   82  48  30 S15G24    29.94F
NEW ULM        PTSUNNY   81  50  34 S22G28    29.91F
ST JAMES       PTSUNNY   82  52  34 SE20G28   29.93
FAIRMONT       PTSUNNY   79  54  41 S18G26    29.94F
GLENCOE        MOSUNNY   83  52  34 S10G20    29.92F
FARIBAULT      MOSUNNY   81  50  34 S17       29.97F
OWATONNA       MOSUNNY   81  48  32 S17       29.97F
WASECA         MOSUNNY   79  48  34 S18       29.97F
ALBERT LEA     MOSUNNY   81  52  36 S13G21    29.98F
$$
MNZ078>079-086>088-094>096-290000-
   Southeast Minnesota

CITY           SKY/WX    TMP DP  RH WIND       PRES   REMARKS
ROCHESTER      PTSUNNY   79  51  37 S16       30.02F
RED WING       MOSUNNY   82  48  30 S10G17    29.97F
STANTON        MOSUNNY   82  49  32 S17       29.95F
DODGE CENTER   MOSUNNY   81  50  34 S22       30.00F
WINONA         MOSUNNY   79  54  41 S5        30.01F
AUSTIN         MOSUNNY   75  54  46 S12G17    30.00F
PRESTON        MOSUNNY   78  53  41 S14       30.03F
$$
ABBREVIATIONS USED IN REMARKS
   TC - TEMPERATURES IN CELSIUS
  WCI - WIND CHILL INDEX
   HX - HEAT INDEX
  VSB - VISIBILITY
$$


USA.gov is the U.S. government's official web portal to all federal, state and local government web resources and services.